Regional Weather Roundup
Issued by NWS

Home | Current Version | Previous Version | Text Only | Print | Product List | Glossary Off
Versions: 1 2 3 4 5 6 7 8 9 10 11 12 13 14 15 16 17 18 19 20 21 22 23 24 25 26 27 28 29 30 31 32 33 34 35 36 37 38 39 40 41 42 43 44 45 46 47 48 49 50

000
ASUS43 KMPX 282010
RWRMN
WEATHER ROUNDUP FOR MINNESOTA
NATIONAL WEATHER SERVICE TWIN CITIES/CHANHASSEN MN
300 PM CDT SAT MAR 28 2015


NOTE: "FAIR" INDICATES FEW OR NO CLOUDS BELOW 12,000 FEET WITH NO
SIGNIFICANT WEATHER AND/OR OBSTRUCTIONS TO VISIBILITY. N/A MEANS
CURRENT SKY AND/OR WEATHER CONDITIONS ARE NOT AVAILABLE.

MNZ060>063-068>070-282100-
   Twin Cities Metro

CITY           SKY/WX    TMP DP  RH WIND       PRES   REMARKS
TWIN CITIES    MOSUNNY   40  15  36 S14G24    30.18F
ST PAUL        SUNNY     41  13  31 S15G21    30.19F
CRYSTAL        SUNNY     43  15  32 S17G23    30.15F
LAKEVILLE      SUNNY     36  23  60 S9        30.18F
EDEN PRAIRIE   SUNNY     42  18  37 S14G24    30.15F
SOUTH ST PAUL  SUNNY     41  14  33 S14G21    30.18F
LAKE ELMO      FAIR      41  16  36 S13G20    30.19F
$$
MNZ001>005-007-008-013>017-022>024-027-028-282100-
   Northwest Minnesota

CITY           SKY/WX    TMP DP  RH WIND       PRES   REMARKS
BEMIDJI        SUNNY     45  22  40 S18G25    29.96F
HALLOCK        PTSUNNY   46  30  53 S28G36    29.83F
ROSEAU         SUNNY     45  28  53 S23       29.87F
WARROAD        SUNNY     45  28  53 S14G25    29.89F
THIEF RVR FALL MOSUNNY   45  28  53 S24G31    29.91F
CROOKSTON      SUNNY     48  27  43 S26G40    29.91F
FOSSTON        SUNNY     45  25  45 S24       29.94F
DETROIT LAKES  SUNNY     43  27  52 S18G24    29.98F
MOORHEAD       SUNNY     46  27  46 S26G33    29.94F
PARK RAPIDS    MOSUNNY   47  22  37 S21G28    29.98F
MAHNOMEN       FAIR      44  26  48 S23G29    29.95F
$$
MNZ006-009>011-018-025>026-282100-
   North Central Minnesota

CITY           SKY/WX    TMP DP  RH WIND       PRES   REMARKS
BAUDETTE       PTSUNNY   41  20  43 S20G29    29.91F
FLAG ISLAND    MOSUNNY   36  25  64 S17       29.87F
INTL FALLS     MOSUNNY   43  11  27 S14G24    29.96F
WASKISH        MOSUNNY   45  19  36 S14G23    29.95F
BIG FORK       SUNNY     46  14  27 S17G23    30.00F
LONGVILLE      SUNNY     43  18  36 S17G23    30.01F
GRAND RAPIDS   SUNNY     41  14  33 S15G22    30.02F
CRANE LAKE     SUNNY     41   5  22 SW13      30.02F
ORR            SUNNY     43   1  17 S10G21    29.98F
COOK           SUNNY     43   7  22 SW16      30.02F
WALKER         FAIR      43  21  42 S18G25    29.99F
$$
MNZ012-019>021-037-282100-
   Northeast Minnesota

CITY           SKY/WX    TMP DP  RH WIND       PRES   REMARKS
DULUTH         SUNNY     42   9  25 SW15      30.06F
ELY            SUNNY     41   1  19 SW16      30.02F
HIBBING        SUNNY     43   5  20 S10G18    30.02F
EVELETH        SUNNY     41  10  28 S15G25    30.04F
DULUTH HARBOR  SUNNY     45   9  23 S8G21     30.11F
TWO HARBORS    SUNNY     45  18  33 SW15G21   30.07F
SILVER BAY     SUNNY     41   9  26 S18G26    30.07F
GRAND MARAIS     N/A     30  20  66 SW6       30.14F WCI  24
G MARAIS ARPRT SUNNY     32   3  29 S10G21    30.07F WCI  24
$$
MNZ029>031-032-039>041-046>048-054>057-064-282100-
   West Central Minnesota

CITY           SKY/WX    TMP DP  RH WIND       PRES   REMARKS
FERGUS FALLS   MOSUNNY   45  23  42 S25G32    30.01F
WHEATON        SUNNY     45  28  53 S18G25    29.99F
MORRIS         MOSUNNY   45  30  57 S22G31    30.01F
ALEXANDRIA     PTSUNNY   40  25  55 S22G32    30.04F
ELBOW LAKE     PTSUNNY   44  28  54 S24G32    30.00F
WADENA         SUNNY     43  25  49 S20G25    30.00F
GLENWOOD       PTSUNNY   41  28  60 S17G28    30.05F
APPLETON       SUNNY     48  28  46 S18G24    30.03F
BENSON         CLOUDY    45  27  49 S15G25    30.05F
ORTONVILLE     SUNNY     48  27  43 S17G29    29.99F
MADISON        SUNNY     48  27  43 S22G29    30.02F
WILLMAR        FAIR      43  28  56 S13G22    30.09F
$$
MNZ033>034-036-042>043-049>051-058-059-282100-
   Central Minnesota

CITY           SKY/WX    TMP DP  RH WIND       PRES   REMARKS
ST CLOUD       SUNNY     41  16  36 S20G28    30.10F
SAUK CENTRE    FAIR      41  26  54 S21       30.06F
PAYNESVILLE    MOSUNNY   37  24  57 E14G24    30.09F
AITKIN         SUNNY     45  16  31 S13G25    30.04F
PINE RIVER     SUNNY     43  25  49 S17G25    30.05F
BRAINERD       SUNNY     43  18  36 S20G25    30.05F
STAPLES        SUNNY     43  19  39 S21G28    30.03F
LONG PRAIRIE   FAIR      41  27  56 S16G28    30.06F
LITTLE FALLS   SUNNY     43  18  36 S16G24    30.07F
LITCHFIELD     SUNNY     41  21  45 SE7G20    30.11F
BUFFALO        SUNNY     39  18  41 S10G20    30.15F
MAPLE LAKE     SUNNY     43  22  44 S15G21    30.13F
$$
MNZ037-044-045-052-053-282100-
   East Central Minnesota

CITY           SKY/WX    TMP DP  RH WIND       PRES   REMARKS
PRINCETON      SUNNY     45  16  31 S9G17     30.12F
MORA           SUNNY     41  14  33 S10G22    30.13F
CAMBRIDGE      SUNNY     45  23  42 S10G23    30.11F
RUSH CITY      SUNNY     42  14  33 S9G20     30.14F
MOOSE LAKE     SUNNY     43  12  28 SW12G26   30.07F
HINCKLEY       FAIR      43  18  36 SW15G22   30.12F
CLOQUET        SUNNY     43   0  16 SW14G22   30.07F
MCGREGOR       SUNNY     41  18  38 S14G23    30.07F
$$
MNZ071>073-080-081-089-090-097-098-282100-
   Southwest Minnesota

CITY           SKY/WX    TMP DP  RH WIND       PRES   REMARKS
MONTEVIDEO     PTSUNNY   45  30  57 SW17G29   30.06F
GRANITE FALLS  CLOUDY    44  30  57 SE21G28   30.08F
CANBY          SUNNY     49  28  44 S15G25    30.03F
MARSHALL       PTSUNNY   45  27  49 S20G29    30.06F
REDWOOD FALLS  CLOUDY    44  26  49 S20G28    30.08F
OLIVIA         PTSUNNY   41  28  60 S17       30.08F
PIPESTONE      SUNNY     46  28  49 S17G29    30.02F
WINDOM         PTSUNNY   45  27  49 S16G23    30.09F
WORTHINGTON    CLOUDY    43  27  52 S18G25    30.08F
JACKSON        MOSUNNY   45  23  42 S20G25    30.11F
TRACY          PTSUNNY   45  30  55 S21G29    30.07F
SLAYTON        MOSUNNY   44  27  51 SE17G28   30.06F
$$
MNZ065>067-074>077-082>085-091>093-282100-
   South Central Minnesota

CITY           SKY/WX    TMP DP  RH WIND       PRES   REMARKS
MANKATO        SUNNY     43  21  42 S16       30.14F
NEW ULM        MOSUNNY   45  21  39 S18G25    30.11F
ST JAMES       SUNNY     45  25  45 SE20G25   30.13F
FAIRMONT       MOSUNNY   45  19  36 S18G26    30.12F
GLENCOE        SUNNY     41  25  53 SE12      30.13F
FARIBAULT      SUNNY     39  19  45 SE14G20   30.18F
OWATONNA       SUNNY     39  19  45 S14       30.17F
WASECA         MOSUNNY   39  23  52 S13       30.18F
ALBERT LEA     SUNNY     43  19  39 S14G20    30.16F
$$
MNZ078>079-086>088-094>096-282100-
   Southeast Minnesota

CITY           SKY/WX    TMP DP  RH WIND       PRES   REMARKS
ROCHESTER      SUNNY     34  20  56 S15       30.20F WCI  24
RED WING       SUNNY     39  12  33 SW13      30.20F
STANTON        SUNNY     37  23  55 S10       30.18F
DODGE CENTER   SUNNY     36  25  64 SE13      30.19F
WINONA         SUNNY     39  12  33 S7        30.24F
AUSTIN         SUNNY     39  19  45 S8        30.18F
PRESTON        SUNNY     34  18  51 S13       30.21F WCI  25
$$
ABBREVIATIONS USED IN REMARKS
   TC - TEMPERATURES IN CELSIUS
  WCI - WIND CHILL INDEX
   HX - HEAT INDEX
  VSB - VISIBILITY
$$



USA.gov is the U.S. government's official web portal to all federal, state and local government web resources and services.